Location: Cranford
(40.6578°N, 74.3024°W)
Time: 12:33:41
(UTC+00:00)

STARLINK-5269 - Pass Details

Date: 08 December 2022
Orbit: 539 x 540 km, 53.2° (Epoch: 27 January)

Event Time Altitude Azimuth Distance (km) Brightness Sun altitude
Rises 23:45:49 0° 263° (W) 2,688 ? -25.0°
Reaches altitude 10° 23:48:17 10° 276° (W) 1,799 ? -25.5°
Enters shadow 23:51:32 27° 328° (NNW) 1,071 ? -26.1°
